Location: Unspecified
(43.3830°N, 0.0000°E)
Time: 17:05:41
(UTC+00:00)

Vanguard 2 - Pass Details

Date: 19 June 2019
Orbit: 553 x 2938 km, 32.9° (Epoch: 18 July)

Event Time Altitude Azimuth Distance (km) Brightness Sun altitude
Rises 09:05:30 0° 229° (SW) 3,410 10.6 48.9°
Reaches altitude 10° 09:07:52 10° 218° (SW) 2,704 10.3 49.3°
Maximum altitude 09:13:42 33° 156° (SSE) 2,047 10.6 50.3°
Drops below altitude 10° 09:22:40 10° 99° (E) 4,219 12.1 51.9°
Sets 09:27:22 0° 92° (E) 5,638 12.5 52.7°
